STARLINK-4445 (53474 NORAD) Tracking and Keplerian Element Data

This shows tracking and keplerian element data for the satellite.

Feedback or suggestion? Click here.




ElementValue
Catalog53474
NameSTARLINK-4445
Epoch Orbit1549
Epoch Day325.09736042
Epoch Year2022
RAAN84.1371
Inclination97.6576
Eccentricity4.92E-05
Argument of Perigee44.3645
Mean Anonmoly315.7618
Mean Motion15.0128638
Decay Rate5.921E-05
L11 53474U 22099K 22325.09736042 .00005921 00000+0 46484-3 0 9995
L22 53474 97.6576 84.1371 0000492 44.3645 315.7618 15.01286380 15494



Live tracking and technical data element details for STARLINK-4445 (NORAD 53474). STARLINK-4445 can be tracked NOW for your location showing map with azimuth and elevation plus other details from your city location.







IsCatalogInMostPopularTable: catalog: 53474, numindb: 7
Update: records affected: 1



GetName: 53474 STARLINK-4445

Hit Count: updated at: Thu, 08 Dec 2022 10:38:27 GMT